This demonstration page uses our WeatherBlox Daily Observations layout. Learn more.

Left ArrowRight Arrow

38.20091, -84.87328

Hourly Observations for August 12, 2018

Temp ( °F °C ) Dew Point ( °F °C ) Humidity (%) Winds ( mph kmh ) Pressure ( in mb ) Visibility ( mi km ) Precip ( " mm )
12:53 am 00:53 Clear 67 19.4 65 18.3 93 93 SSE 5 7 30.00 1016 7 11 0.00 0.00
1:37 am 01:37 Mostly Clear 67 19.4 65 18.3 93 93 Calm 30.03 1017 7 11 0.00 0.00
1:53 am 01:53 Partly Cloudy 67 19.4 65 18.3 93 93 Calm 30.01 1016 7 11 0.00 0.00
2:04 am 02:04 Mostly Cloudy 67 19.4 65 18.3 93 93 NNW 3 6 30.03 1017 7 11 0.00 0.00
2:45 am 02:45 Partly Cloudy 67 19.4 65 18.3 93 93 Calm 30.03 1017 7 11 0.00 0.00
2:53 am 02:53 Mostly Clear with Mist and Fog 66 18.9 65 18.3 96 96 Calm 30.01 1016 6 10 0.00 0.00
3:18 am 03:18 Mostly Clear with Mist and Fog 66 18.9 64 17.8 93 93 NNW 3 6 30.03 1017 3 4 0.00 0.00
3:21 am 03:21 Mostly Cloudy with Mist and Fog 66 18.9 64 17.8 93 93 NNW 3 6 30.03 1017 1 2 0.00 0.00
3:28 am 03:28 Mostly Cloudy with Fog 66 18.9 64 17.8 93 93 Calm 30.03 1017 1 1 0.00 0.00
3:33 am 03:33 Partly Cloudy with Mist and Fog 66 18.9 65 18.3 96 96 Calm 30.03 1017 1 2 0.00 0.00
3:36 am 03:36 Mostly Clear with Mist and Fog 66 18.9 65 18.3 96 96 Calm 30.03 1017 3 5 0.00 0.00
3:49 am 03:49 Mostly Cloudy with Mist and Fog 66 19 64 18 94 94 Calm 30.03 1017 3 5 0.00 0.00
3:53 am 03:53 Mostly Cloudy with Mist and Fog 65 18.3 64 17.8 97 97 Calm 30.01 1016 5 8 0.00 0.00
3:56 am 03:56 Mostly Cloudy with Mist and Fog 65 18.3 64 17.8 97 97 Calm 30.03 1017 3 4 0.00 0.00
3:58 am 03:58 Mostly Cloudy with Mist and Fog 65 18.3 64 17.8 97 97 Calm 30.03 1017 2 2 0.00 0.00
4:02 am 04:02 Mostly Cloudy with Mist and Fog 65 18.3 64 17.8 97 97 Calm 30.03 1017 1 1 0.00 0.00
4:22 am 04:22 Cloudy with Mist and Fog 65 18.3 64 17.8 97 97 NNW 3 6 30.03 1017 1 2 0.00 0.00
4:25 am 04:25 Cloudy with Mist and Fog 65 18.3 64 17.8 97 97 NNW 3 6 30.03 1017 1 1 0.00 0.00
4:53 am 04:53 Mostly Cloudy with Mist and Fog 65 18.3 63 17.2 93 93 NNW 5 7 30.01 1016 1 2 0.00 0.00
5:04 am 05:04 Cloudy with Mist and Fog 65 18.3 64 17.8 97 97 NNW 3 6 30.03 1017 1 1 0.00 0.00
5:13 am 05:13 Cloudy with Mist and Fog 65 18.3 64 17.8 97 97 NNW 3 6 30.03 1017 1 2 0.00 0.00
5:19 am 05:19 Cloudy with Mist and Fog 65 18.3 64 17.8 97 97 Calm 30.03 1017 3 5 0.00 0.00
5:51 am 05:51 Cloudy 66 19 64 18 94 94 Calm 30.03 1017 10 16 0.00 0.00
5:53 am 05:53 Cloudy 66 18.9 65 18.3 96 96 Calm 30.00 1016 10 16 0.00 0.00
6:15 am 06:15 Cloudy with Mist and Fog 66 18.9 64 17.8 93 93 NNW 3 6 30.03 1017 2 2 0.00 0.00
6:18 am 06:18 Cloudy with Mist and Fog 65 18.3 64 17.8 97 97 NNW 3 6 30.03 1017 1 1 0.00 0.00
6:53 am 06:53 Mostly Cloudy with Fog 65 18.3 64 17.8 97 97 Calm 30.04 1017 0 0 0.00 0.00
7:22 am 07:22 Cloudy with Mist and Fog 65 18.3 64 17.8 97 97 Calm 30.06 1018 1 2 0.00 0.00
7:30 am 07:30 Mostly Cloudy with Mist and Fog 65 18.3 64 17.8 97 97 NNW 3 6 30.06 1018 1 2 0.00 0.00
7:40 am 07:40 Mostly Cloudy with Fog 66 18.9 65 18.3 96 96 NNW 3 6 30.06 1018 0 0 0.00 0.00
7:53 am 07:53 Mostly Cloudy with Fog 66 18.9 65 18.3 96 96 NW 3 6 30.06 1018 5 8 0.00 0.00
8:43 am 08:43 Cloudy with Mist and Fog 68 20 67 19.4 96 96 VRB 3 6 30.09 1019 1 2 0.00 0.00
8:53 am 08:53 Cloudy with Mist and Fog 68 20 67 19.4 96 96 NNW 3 6 30.06 1018 2 3 0.00 0.00
9:23 am 09:23 Cloudy with Mist and Fog 69 20.6 68 20 96 96 N 3 6 30.09 1019 3 5 0.00 0.00
9:53 am 09:53 Mostly Cloudy with Mist and Fog 71 21.7 68 20 90 90 NNW 3 6 30.08 1019 5 8 0.00 0.00
10:14 am 10:14 Partly Cloudy 74 23.3 69 20.6 85 85 NNE 3 6 30.06 1018 8 13 0.00 0.00
10:53 am 10:53 Mostly Sunny 77 25 68 20 74 74 N 5 7 30.09 1019 10 16 0.00 0.00
11:53 am 11:53 Partly Cloudy 80 26.7 67 19.4 64 64 VRB 3 6 30.09 1019 10 16 0.00 0.00
12:53 pm 12:53 Partly Cloudy 83 28.3 66 18.9 57 57 NNW 8 13 30.09 1019 10 16 0.00 0.00
1:53 pm 13:53 Sunny 84 28.9 65 18.3 53 53 undefined N/A 30.07 1018 10 16 0.00 0.00
2:53 pm 14:53 Mostly Sunny 85 29.4 65 18.3 51 51 NNE 6 9 30.06 1018 10 16 0.00 0.00
3:53 pm 15:53 Mostly Sunny 86 30 65 18.3 49 49 NNW 7 11 30.04 1017 10 16 0.00 0.00
4:53 pm 16:53 Sunny 83 28.3 64 17.8 53 53 NNW 3 6 30.03 1017 10 16 0.00 0.00
5:53 pm 17:53 Sunny 85 29.4 63 17.2 48 48 NNE 7 11 30.03 1017 10 16 0.00 0.00
6:53 pm 18:53 Partly Cloudy 84 28.9 64 17.8 51 51 NNW 6 9 30.01 1016 10 16 0.00 0.00
7:53 pm 19:53 Sunny 80 26.7 66 18.9 62 62 NW 3 6 30.02 1017 10 16 0.00 0.00
8:53 pm 20:53 Clear 75 23.9 67 19.4 76 76 N 3 6 30.04 1017 10 16 0.00 0.00
9:53 pm 21:53 Clear 71 21.7 67 19.4 87 87 Calm 30.06 1018 10 16 0.00 0.00
10:53 pm 22:53 Clear 70 21.1 67 19.4 90 90 Calm 30.06 1018 10 16 0.00 0.00
11:53 pm 23:53 Clear 69 20.6 66 18.9 90 90 Calm 30.07 1018 10 16 0.00 0.00

Powered by AerisWeather